| time (UTC) | temp C | wind direction | speed KPH | gust KPH | rain 1hr cm | rain 24hr cm | rain mn cm | humidity % | barometer mb |
| 20260510021551 | 25 | 151 | 0.0 | 0.0 | 0.00 | 0.05 | 0.05 | 70 | 1007.4 |
| 20260510020021 | 25 | 151 | 0.0 | 0.0 | 0.00 | 0.05 | 0.05 | 68 | 1007.3 |
| 20260510014552 | 25 | 150 | 0.0 | 1.6 | 0.00 | 0.05 | 0.05 | 66 | 1007.2 |
| 20260510013056 | 26 | 150 | 0.0 | 0.0 | 0.00 | 0.05 | 0.05 | 63 | 1007.0 |
| 20260510011514 | 27 | 150 | 0.0 | 4.8 | 0.00 | 0.05 | 0.05 | 59 | 1006.9 |
| 20260510010049 | 27 | 150 | 0.0 | 4.8 | 0.00 | 0.05 | 0.05 | 54 | 1006.7 |
| 20260510004511 | 29 | 149 | 0.0 | 4.8 | 0.00 | 0.05 | 0.05 | 48 | 1006.6 |
| 20260510001510 | 31 | 149 | 0.0 | 3.2 | 0.00 | 0.05 | 0.05 | 45 | 1006.3 |
| 20260510000100 | 32 | 149 | 0.0 | 1.6 | 0.00 | 0.05 | 0.05 | 45 | 1006.3 |
| 20260509234536 | 32 | 149 | 0.0 | 4.8 | 0.00 | 0.05 | 0.05 | 48 | 1006.1 |
| 20260509233001 | 32 | 150 | 0.0 | 0.0 | 0.00 | 0.05 | 0.05 | 47 | 1005.9 |
| 20260509231604 | 33 | 149 | 0.0 | 4.8 | 0.00 | 0.05 | 0.05 | 49 | 1005.9 |
| 20260509230040 | 33 | 148 | 0.0 | 0.0 | 0.00 | 0.05 | 0.05 | 47 | 1005.9 |
| 20260509224508 | 33 | 148 | 0.0 | 0.0 | 0.00 | 0.05 | 0.05 | 48 | 1006.0 |
| 20260509223040 | 32 | 148 | 0.0 | 0.0 | 0.00 | 0.05 | 0.05 | 50 | 1005.9 |
| 20260509221505 | 32 | 149 | 0.0 | 3.2 | 0.00 | 0.05 | 0.05 | 50 | 1005.9 |
| 20260509220058 | 31 | 150 | 0.0 | 6.4 | 0.00 | 0.05 | 0.05 | 52 | 1006.0 |
| 20260509214539 | 31 | 151 | 0.0 | 8.0 | 0.00 | 0.05 | 0.05 | 53 | 1006.1 |
| 20260509213108 | 29 | 150 | 0.0 | 9.7 | 0.00 | 0.05 | 0.05 | 54 | 1006.4 |
| 20260509211518 | 31 | 148 | 3.2 | 11.3 | 0.00 | 0.05 | 0.05 | 54 | 1006.3 |
| 20260509210009 | 31 | 149 | 0.0 | 0.0 | 0.00 | 0.05 | 0.05 | 52 | 1006.5 |
| 20260509204539 | 31 | 149 | 0.0 | 0.0 | 0.00 | 0.05 | 0.05 | 50 | 1006.7 |
| 20260509203012 | 32 | 149 | 0.0 | 4.8 | 0.00 | 0.05 | 0.05 | 50 | 1006.8 |
| 20260509201538 | 32 | 150 | 0.0 | 4.8 | 0.00 | 0.05 | 0.05 | 52 | 1007.0 |
| 20260509200103 | 32 | 150 | 0.0 | 6.4 | 0.00 | 0.05 | 0.05 | 50 | 1007.1 |
| 20260509194530 | 31 | 151 | 0.0 | 8.0 | 0.00 | 0.05 | 0.05 | 53 | 1007.1 |
| 20260509193019 | 31 | 150 | 0.0 | 8.0 | 0.00 | 0.05 | 0.05 | 54 | 1007.3 |
| 20260509191540 | 30 | 150 | 3.2 | 9.7 | 0.00 | 0.05 | 0.05 | 55 | 1007.6 |
| 20260509190018 | 31 | 150 | 1.6 | 8.0 | 0.00 | 0.05 | 0.05 | 55 | 1007.9 |
| 20260509184552 | 30 | 151 | 0.0 | 6.4 | 0.00 | 0.05 | 0.05 | 58 | 1008.2 |
| 20260509183015 | 29 | 150 | 0.0 | 4.8 | 0.00 | 0.05 | 0.05 | 62 | 1008.4 |
| 20260509181502 | 30 | 150 | 3.2 | 8.0 | 0.00 | 0.05 | 0.05 | 61 | 1008.6 |
| 20260509180048 | 30 | 150 | 0.0 | 6.4 | 0.00 | 0.05 | 0.05 | 61 | 1008.6 |
| 20260509174530 | 30 | 150 | 0.0 | 1.6 | 0.00 | 0.05 | 0.05 | 66 | 1009.0 |
| 20260509173105 | 29 | 150 | 0.0 | 9.7 | 0.00 | 0.05 | 0.05 | 65 | 1009.2 |
| 20260509171524 | 28 | 150 | 1.6 | 11.3 | 0.00 | 0.05 | 0.05 | 68 | 1009.0 |
| 20260509170048 | 28 | 150 | 0.0 | 6.4 | 0.00 | 0.05 | 0.05 | 70 | 1009.2 |
| 20260509164518 | 28 | 151 | 0.0 | 6.4 | 0.00 | 0.05 | 0.05 | 70 | 1009.2 |
| 20260509163052 | 27 | 150 | 0.0 | 8.0 | 0.00 | 0.05 | 0.05 | 75 | 1009.3 |
| 20260509161512 | 26 | 151 | 0.0 | 6.4 | 0.00 | 0.05 | 0.05 | 80 | 1009.3 |
| 20260509160041 | 25 | 148 | 3.2 | 9.7 | 0.00 | 0.05 | 0.05 | 83 | 1009.2 |
| 20260509154504 | 24 | 150 | 1.6 | 9.7 | 0.00 | 0.05 | 0.05 | 89 | 1009.7 |
| 20260509153038 | 23 | 150 | 4.8 | 12.9 | 0.00 | 0.05 | 0.05 | 92 | 1009.7 |
| 20260509151549 | 22 | 150 | 1.6 | 11.3 | 0.00 | 0.05 | 0.05 | 93 | 1009.8 |
| 20260509150020 | 22 | 149 | 0.0 | 6.4 | 0.00 | 0.05 | 0.05 | 93 | 1009.4 |
| 20260509144549 | 22 | 149 | 1.6 | 6.4 | 0.00 | 0.05 | 0.05 | 94 | 1009.2 |
| 20260509143019 | 22 | 150 | 0.0 | 8.0 | 0.00 | 0.05 | 0.05 | 95 | 1009.0 |
| 20260509141504 | 22 | 150 | 1.6 | 6.4 | 0.00 | 0.05 | 0.05 | 96 | 1008.7 |
| 20260509140050 | 22 | 149 | 0.0 | 1.6 | 0.00 | 0.05 | 0.05 | 97 | 1008.6 |
| 20260509134507 | 21 | 151 | 0.0 | 3.2 | 0.00 | 0.05 | 0.05 | 97 | 1008.6 |
| 20260509133058 | 21 | 150 | 0.0 | 0.0 | 0.00 | 0.05 | 0.05 | 97 | 1009.4 |
| 20260509131528 | 21 | 151 | 0.0 | 0.0 | 0.00 | 0.05 | 0.05 | 97 | 1009.4 |
| 20260509130058 | 21 | 151 | 0.0 | 0.0 | 0.00 | 0.05 | 0.05 | 97 | 1009.2 |
| 20260509124532 | 21 | 151 | 0.0 | 0.0 | 0.00 | 0.05 | 0.05 | 97 | 1009.0 |
| 20260509123054 | 21 | 151 | 0.0 | 0.0 | 0.00 | 0.05 | 0.05 | 97 | 1008.7 |
| 20260509121526 | 21 | 151 | 0.0 | 0.0 | 0.00 | 0.05 | 0.05 | 97 | 1008.9 |
| 20260509120053 | 21 | 151 | 0.0 | 0.0 | 0.00 | 0.05 | 0.05 | 97 | 1008.9 |
| 20260509114550 | 21 | 151 | 0.0 | 0.0 | 0.00 | 0.05 | 0.05 | 97 | 1009.2 |
| 20260509113032 | 21 | 151 | 0.0 | 0.0 | 0.00 | 0.05 | 0.05 | 97 | 1009.7 |
| 20260509111508 | 21 | 151 | 0.0 | 0.0 | 0.00 | 0.05 | 0.05 | 97 | 1009.7 |
| 20260509110058 | 21 | 151 | 0.0 | 0.0 | 0.00 | 0.05 | 0.05 | 96 | 1009.9 |
| 20260509104534 | 21 | 151 | 0.0 | 0.0 | 0.00 | 0.05 | 0.05 | 96 | 1010.0 |
| 20260509103105 | 21 | 151 | 0.0 | 0.0 | 0.00 | 0.05 | 0.05 | 96 | 1009.9 |
| 20260509101517 | 21 | 151 | 0.0 | 0.0 | 0.00 | 0.05 | 0.05 | 96 | 1009.4 |
| 20260509100042 | 21 | 151 | 0.0 | 0.0 | 0.03 | 0.05 | 0.05 | 96 | 1008.9 |
| 20260509094516 | 21 | 151 | 0.0 | 0.0 | 0.03 | 0.05 | 0.05 | 96 | 1008.6 |
| 20260509093042 | 21 | 151 | 0.0 | 0.0 | 0.03 | 0.05 | 0.05 | 96 | 1008.6 |
| 20260509091547 | 21 | 151 | 0.0 | 0.0 | 0.05 | 0.05 | 0.05 | 96 | 1008.5 |
| 20260509090010 | 21 | 151 | 0.0 | 0.0 | 0.03 | 0.03 | 0.03 | 96 | 1008.5 |
| 20260509084547 | 21 | 151 | 0.0 | 0.0 | 0.03 | 0.03 | 0.03 | 96 | 1008.6 |
| 20260509083011 | 21 | 151 | 0.0 | 0.0 | 0.00 | 0.00 | 0.00 | 96 | 1009.0 |
| 20260509081538 | 21 | 151 | 0.0 | 0.0 | 0.00 | 0.00 | 0.00 | 95 | 1008.9 |
| 20260509080005 | 21 | 151 | 0.0 | 0.0 | 0.00 | 0.00 | 0.00 | 95 | 1008.9 |
| 20260509074555 | 21 | 151 | 0.0 | 0.0 | 0.00 | 0.00 | 0.00 | 95 | 1008.7 |
| 20260509073031 | 21 | 151 | 0.0 | 0.0 | 0.00 | 0.00 | 0.00 | 95 | 1009.0 |
| 20260509071557 | 21 | 151 | 0.0 | 0.0 | 0.00 | 0.00 | 0.00 | 95 | 1008.8 |
| 20260509070020 | 21 | 151 | 0.0 | 1.6 | 0.00 | 0.00 | 0.00 | 95 | 1008.9 |
| 20260509064516 | 21 | 151 | 0.0 | 3.2 | 0.00 | 0.00 | 0.00 | 95 | 1009.0 |
| 20260509063020 | 21 | 151 | 0.0 | 4.8 | 0.00 | 0.00 | 0.00 | 95 | 1008.5 |
| 20260509061552 | 21 | 151 | 0.0 | 9.7 | 0.00 | 0.00 | 0.00 | 95 | 1008.6 |
| 20260509060025 | 21 | 151 | 0.0 | 8.0 | 0.00 | 0.00 | 0.00 | 95 | 1008.4 |
| 20260509054538 | 21 | 150 | 0.0 | 8.0 | 0.00 | 0.00 | 0.00 | 95 | 1008.6 |
| 20260509053016 | 21 | 151 | 0.0 | 6.4 | 0.00 | 0.00 | 0.00 | 95 | 1008.7 |
| 20260509051514 | 20 | 150 | 0.0 | 4.8 | 0.00 | 0.00 | 0.00 | 95 | 1008.5 |
| 20260509050055 | 20 | 150 | 0.0 | 4.8 | 0.00 | 0.00 | 0.00 | 95 | 1008.4 |
| 20260509044529 | 20 | 150 | 0.0 | 3.2 | 0.00 | 0.00 | 0.00 | 95 | 1008.0 |
| 20260509043054 | 20 | 150 | 0.0 | 1.6 | 0.00 | 0.00 | 0.00 | 94 | 1008.2 |
| 20260509041549 | 21 | 150 | 0.0 | 3.2 | 0.00 | 0.00 | 0.00 | 94 | 1008.3 |
| 20260509040021 | 21 | 150 | 0.0 | 3.2 | 0.00 | 0.00 | 0.00 | 93 | 1008.6 |
| 20260509034549 | 21 | 149 | 0.0 | 1.6 | 0.00 | 0.00 | 0.00 | 93 | 1008.7 |
| 20260509033107 | 21 | 149 | 0.0 | 1.6 | 0.00 | 0.00 | 0.00 | 92 | 1008.8 |
| 20260509031515 | 21 | 149 | 0.0 | 1.6 | 0.00 | 0.00 | 0.00 | 92 | 1008.6 |
| 20260509030049 | 21 | 150 | 0.0 | 1.6 | 0.00 | 0.00 | 0.00 | 91 | 1008.4 |
| 20260509024525 | 21 | 150 | 0.0 | 3.2 | 0.00 | 0.00 | 0.00 | 90 | 1008.0 |
| 20260509023057 | 22 | 150 | 0.0 | 4.8 | 0.00 | 0.00 | 0.00 | 90 | 1008.1 |